Weather History for Rogers, AR

Change the Weather History Date:

Friday, November 30, 2012

  Actual Average Record
Temperature  
Mean Temperature 56 °F -  
Max Temperature 66 °F 51 °F 66 °F (2012)
Min Temperature 46 °F 34 °F 15 °F (2006)
Degree Days  
Heating Degree Days 9    
Growing Degree Days 6 (Base 50)    
Moisture  
Dew Point 45 °F    
Average Humidity 67    
Maximum Humidity 93    
Minimum Humidity 52    
Precipitation  
Precipitation 0.00 in - - ()
Sea Level Pressure  
Sea Level Pressure 30.10 in    
Wind  
Wind Speed 10 mph (South)    
Max Wind Speed 17 mph    
Max Gust Speed 22 mph    
Visibility 10 miles    
Events      
Averages and records for this station are not official NWS values.
T = Trace of Precipitation, MM = Missing Value Source: NWS Daily Summary

Daily Weather History Graph

Daily Weather History Graph

Search for Another Location

Airport:

Trip Planner

Search our weather history database for the weather conditions in past years. The results will help you decide how hot, cold, wet, or windy it might be!

Date:

Astronomy

Nov. 30, 2012 Rise Set
Actual Time 7:08 AM CST 5:01 PM CST
Civil Twilight 6:40 AM CST 5:29 PM CST
Nautical Twilight 6:08 AM CST 6:01 PM CST
Astronomical Twilight 5:37 AM CST 6:32 PM CST
Moon 6:56 PM CST (11/30) 8:41 AM CST (11/30)
Length of Visible Light 10h 49m
Length of Day
9h 52m
Waning Gibbous, 96% of the Moon is Illuminated
Nov 30
Waning Gibbous
Dec 6
Last Quarter
Dec 13
New
Dec 19
First Quarter
Dec 28
Full

Hourly Weather History & Observations

Time (CST) Temp. Windchill Dew Point Humidity Pressure Visibility Wind Dir Wind Speed Gust Speed Precip Events Conditions
12:57 AM 48.0 °F - 30.9 °F 52% 30.13 in 10.0 mi South 9.2 mph - N/A   Clear
1:57 AM 48.0 °F - 30.9 °F 52% 30.13 in 10.0 mi SSE 9.2 mph - N/A   Clear
3:57 AM 46.0 °F 41.9 °F 32.0 °F 58% 30.12 in 10.0 mi SSE 8.1 mph - N/A   Clear
4:57 AM 46.9 °F - 34.0 °F 61% 30.12 in 10.0 mi SSE 8.1 mph - N/A   Clear
5:57 AM 48.0 °F - 36.0 °F 63% 30.12 in 10.0 mi SSE 6.9 mph - N/A   Clear
6:57 AM 46.0 °F 43.9 °F 36.0 °F 68% 30.13 in 10.0 mi SSE 4.6 mph - N/A   Clear
7:57 AM 48.9 °F - 39.0 °F 69% 30.14 in 10.0 mi South 8.1 mph - N/A   Clear
8:57 AM 55.9 °F - 43.0 °F 62% 30.14 in 10.0 mi South 15.0 mph - N/A   Clear
9:57 AM 60.1 °F - 46.9 °F 62% 30.14 in 10.0 mi SSW 17.3 mph 21.9 mph N/A   Clear
10:57 AM 62.1 °F - 48.9 °F 62% 30.14 in 10.0 mi South 15.0 mph - N/A   Clear
11:57 AM 64.9 °F - 51.1 °F 61% 30.11 in 10.0 mi SW 15.0 mph - N/A   Clear
12:57 PM 66.0 °F - 51.1 °F 59% 30.08 in 10.0 mi South 15.0 mph - N/A   Clear
1:57 PM 66.0 °F - 51.1 °F 59% 30.07 in 10.0 mi SSW 13.8 mph - N/A   Clear
2:57 PM 66.0 °F - 51.1 °F 59% 30.06 in 10.0 mi SSW 12.7 mph - N/A   Clear
3:57 PM 64.9 °F - 51.1 °F 61% 30.07 in 10.0 mi SSW 6.9 mph - N/A   Clear
4:57 PM 62.1 °F - 50.0 °F 65% 30.07 in 10.0 mi SSE 6.9 mph - N/A   Clear
6:57 PM 59.0 °F - 50.0 °F 72% 30.07 in 10.0 mi SE 6.9 mph - N/A   Clear
7:57 PM 57.0 °F - 50.0 °F 77% 30.06 in 10.0 mi SE 8.1 mph - N/A   Clear
8:57 PM 55.9 °F - 51.1 °F 84% 30.07 in 10.0 mi SSE 10.4 mph - N/A   Clear
9:57 PM 55.0 °F - 52.0 °F 89% 30.06 in 8.0 mi SSE 10.4 mph - N/A   Clear
10:57 PM 55.0 °F - 52.0 °F 89% 30.07 in 7.0 mi SE 6.9 mph - N/A   Clear
11:57 PM 54.0 °F - 52.0 °F 93% 30.07 in 6.0 mi South 5.8 mph - N/A   Clear